Showing default

COSMOS 2475 (GLONASS), 37869

Orbit data source: Space-Track

COSMOS 2475 (GLONASS), 37869 is a Commonwealth of Independent States-origin payload satellite in MEO that was launched on Fri, 04 Nov 2011 UTC via a PROTON-M/BRIZ-M launch vehicle from the Tyuratam Missile And Space Complex (TTMTR). Payload-class satellites include a variety of spacecraft equipped with specific instruments for various scientific and technological missions. These include communications satellites like Starlink; space stations such as the ISS; scientific satellites like the Hubble; Earth observation satellites from companies like Planet Labs, Umbra, and HawkEye 360; GPS; miniature CubeSats for education and research; and military/defense satellites.

Loading next visibility...
Identifier
37869, 2011-064C
Orbit
MEO
Country
Flag of CISCIS
Related business
Manufacturer
Resehetnev ISS
Mission
Operational Defense Navigation
Bus & Motor
URAGAN, Unknown motor
Mass
1,450 kg wet, ~1,200 kg dry
Launch date (UTC)
2011-11-04 (14 years ago)
Launch vehicle
PROTON-M/BRIZ-M
Launch site
Tyuratam Missile And Space Complex (TTMTR)
Object type
Payload
Rocket body
Debris
Shape & HBR
Cyl + 1 Ant + 2 Pan, 3.9 m
Radar Cross Section
8.467 m², Large (>1 m²)

Expand to show TLE details & history
Last TLE update: 3 days ago

TLE from 3 days ago
0 COSMOS 2475 (GLONASS)
1 37869U 11064C   25287.33994579  .00000044  00000-0  00000-0 0  9996
2 37869  65.1438  81.2765 0024318 246.7154  88.6412  2.13101582108526
Epoch: 2025-10-14T08:09Z
TLE epoch observation values (Epoch: 2025-10-14T08:09:31.316Z)
Latitude
-22.01995°
Longitude
-75.03475°
Altitude
19,134.827 km
Speed
3.953 km/s
True Right ascension
04h 41m 54s
True Declination
-21° 59' 12"
Sunlit
Object was in daylight at epoch
Visualization orbit readout
Latitude
Unknown
Longitude
Unknown
Altitude
Unknown
Speed
Unknown
Apparent Right ascension
Unknown
Apparent Declination
Unknown
Sunlit
N/A
Visualization observer readout
Local Sidereal Time
15:09:22
Azimuth
Unknown
Elevation
Unknown
Doppler factor
Unknown
Orbital elements
Apogee altitude
19,191.56 km
Perigee altitude
19,067.501 km
Semi-major axis
25,507.668 km
Eccentricity
0.00243
Inclination
65.1438°
RAAN
81.2765°
Arg. of periapsis
246.7154°
True anomaly
88.9198°
Mean anomaly
88.6412°
Eccentric anomaly
88.7805°
Mean motion
0.53277 °/min
Orbital period
675.72 mins
BSTAR
0
Loading maneuver chart data...
Computing Atmospheric mass density...
Loading historical data...
Loading historical data...
Loading historical data...
Loading historical data...
Loading historical data...
Loading historical data...
Loading historical data...

Documentation

Showing up to 5 results
|